Change the Weather History Date:

Tuesday, September 24, 2013

  Actual Average Record
Temperature  
Mean Temperature 62 °F -  
Max Temperature 68 °F 74 °F 88 °F (2007)
Min Temperature 59 °F 51 °F 41 °F (2000)
Degree Days  
Heating Degree Days 2    
Growing Degree Days 12 (Base 50)    
Moisture  
Dew Point 55 °F    
Average Humidity 75    
Maximum Humidity 90    
Minimum Humidity 68    
Precipitation  
Precipitation 0.00 in - - ()
Sea Level Pressure  
Sea Level Pressure 29.81 in    
Wind  
Wind Speed 10 mph (WSW)    
Max Wind Speed 14 mph    
Max Gust Speed -    
Visibility 10 miles    
Events      
Averages and records for this station are not official NWS values.
T = Trace of Precipitation, MM = Missing Value Source: NWS Daily Summary

Daily Weather History Graph

Daily Weather History Graph

Search for Another Location

Airport or City:

Trip Planner

Search our weather history database for the weather conditions in past years. The results will help you decide how hot, cold, wet, or windy it might be!

Date:

Astronomy

Sep. 24, 2013 Rise Set
Actual Time 7:09 AM CDT 7:12 PM CDT
Civil Twilight 6:42 AM CDT 7:39 PM CDT
Nautical Twilight 6:11 AM CDT 8:10 PM CDT
Astronomical Twilight 5:40 AM CDT 8:41 PM CDT
Moon 10:34 PM CDT (9/24) 12:21 PM CDT (9/24)
Length of Visible Light 12h 56m
Length of Day
12h 03m
Waning Gibbous, 73% of the Moon is Illuminated
Sep 24
Waning Gibbous
Sep 26
Last Quarter
Oct 4
New
Oct 11
First Quarter
Oct 18
Full

Hourly Weather History & Observations

Time (CDT) Temp. Dew Point Humidity Pressure Visibility Wind Dir Wind Speed Gust Speed Precip Events Conditions
12:53 AM 64.9 °F 54.0 °F 68% 29.79 in 10.0 mi SSE 12.7 mph - N/A   Clear
1:53 AM 63.0 °F 54.0 °F 72% 29.79 in 10.0 mi SSE 10.4 mph - N/A   Clear
2:53 AM 62.1 °F 54.0 °F 75% 29.78 in 10.0 mi SSE 12.7 mph - N/A   Partly Cloudy
3:53 AM 62.1 °F 54.0 °F 75% 29.76 in 10.0 mi SSE 10.4 mph - N/A   Clear
4:53 AM 63.0 °F 54.0 °F 72% 29.76 in 10.0 mi SSE 11.5 mph - N/A   Clear
5:53 AM 61.0 °F 54.0 °F 78% 29.76 in 10.0 mi South 10.4 mph - N/A   Clear
6:53 AM 60.1 °F 54.0 °F 80% 29.77 in 10.0 mi South 9.2 mph - N/A   Clear
7:53 AM 59.0 °F 54.0 °F 83% 29.78 in 10.0 mi South 6.9 mph - N/A   Clear
8:53 AM 63.0 °F 54.0 °F 72% 29.78 in 10.0 mi SW 9.2 mph - N/A   Clear
9:53 AM 66.0 °F 55.0 °F 68% 29.79 in 10.0 mi WSW 10.4 mph - N/A   Clear
10:35 AM 66.2 °F 55.4 °F 68% 29.82 in 10.0 mi West 11.5 mph - N/A   Mostly Cloudy
10:53 AM 64.9 °F 55.0 °F 70% 29.80 in 10.0 mi West 13.8 mph - N/A   Overcast
11:36 AM 64.4 °F 55.4 °F 73% 29.83 in 10.0 mi WSW 5.8 mph - N/A   Overcast
11:53 AM 66.0 °F 55.9 °F 70% 29.81 in 10.0 mi West 9.2 mph - N/A   Overcast
12:32 PM 66.2 °F 55.4 °F 68% 29.83 in 10.0 mi West 8.1 mph - N/A   Overcast
12:41 PM 66.2 °F 55.4 °F 68% 29.83 in 10.0 mi West 10.4 mph - N/A   Overcast
12:53 PM 66.9 °F 55.9 °F 68% 29.81 in 10.0 mi West 10.4 mph - N/A   Overcast
1:53 PM 66.0 °F 57.0 °F 73% 29.82 in 10.0 mi WNW 6.9 mph - N/A   Overcast
2:53 PM 66.9 °F 57.0 °F 70% 29.82 in 10.0 mi WNW 6.9 mph - N/A   Overcast
3:53 PM 66.0 °F 57.0 °F 73% 29.83 in 10.0 mi West 11.5 mph - N/A   Overcast
4:53 PM 66.0 °F 57.0 °F 73% 29.83 in 10.0 mi WNW 8.1 mph - N/A   Overcast
5:53 PM 66.9 °F 57.9 °F 73% 29.84 in 10.0 mi NW 8.1 mph - N/A   Mostly Cloudy
6:53 PM 64.9 °F 57.0 °F 75% 29.84 in 10.0 mi NW 5.8 mph - N/A   Clear
7:53 PM 62.1 °F 57.0 °F 84% 29.84 in 10.0 mi WNW 3.5 mph - N/A   Clear
8:53 PM 61.0 °F 55.9 °F 83% 29.85 in 10.0 mi WNW 5.8 mph - N/A   Clear
9:53 PM 60.1 °F 55.9 °F 86% 29.85 in 10.0 mi WNW 3.5 mph - N/A   Clear
10:53 PM 60.1 °F 55.9 °F 86% 29.85 in 10.0 mi WNW 6.9 mph - N/A   Clear
11:53 PM 60.1 °F 57.0 °F 90% 29.86 in 10.0 mi NNW 6.9 mph - N/A   Clear